FW1460 Weather Reports


Display with metric or nautical units.
time (UTC)temp
F
wind
direction
speed
MPH
gust
MPH
rain 1hr
in
rain 24hr
in
rain mn
in
humidity
%
barometer
mb
20260504183047 66 130 5.0 13.0 0.00 0.00 0.00 48 1008.8
20260504181546 66 198 5.0 17.0 0.00 0.00 0.00 49 1009.0
20260504180045 65 194 5.0 19.0 0.00 0.00 0.00 49 1008.8
20260504174546 65 161 7.0 19.0 0.00 0.00 0.00 46 1008.9
20260504173057 66 192 7.0 17.0 0.00 0.00 0.00 43 1008.8
20260504171543 68 147 3.0 13.0 0.00 0.00 0.00 40 1008.9
20260504081530 46 202 0.0 3.0 0.00 0.00 0.00 70 1011.0
20260504050007 44 211 0.0 2.0 0.00 0.00 0.00 64 1010.6
20260504044507 43 217 0.0 1.0 0.00 0.00 0.00 65 1010.7
20260504043004 43 217 0.0 0.0 0.00 0.00 0.00 65 1010.7
20260504041503 43 232 0.0 2.0 0.00 0.00 0.00 64 1010.6
20260504040057 42 327 0.0 2.0 0.00 0.00 0.00 67 1010.5
20260504034611 41 328 0.0 1.0 0.00 0.00 0.00 72 1010.3
20260504033055 41 328 0.0 0.0 0.00 0.00 0.00 70 1010.2
20260504031554 42 328 0.0 0.0 0.00 0.00 0.00 68 1010.0
20260504030052 42 328 0.0 1.0 0.00 0.00 0.00 67 1010.0
20260504024554 41 328 0.0 0.0 0.00 0.00 0.00 66 1010.0
20260504023052 41 328 0.0 0.0 0.00 0.00 0.00 64 1010.0
20260504021553 41 328 0.0 0.0 0.00 0.00 0.00 63 1010.0
20260504014547 42 328 0.0 0.0 0.00 0.00 0.00 62 1009.9
20260504013102 42 328 0.0 0.0 0.00 0.00 0.00 59 1009.7
20260504011543 43 328 0.0 0.0 0.00 0.00 0.00 59 1009.5
20260504010042 43 328 0.0 0.0 0.00 0.00 0.00 57 1009.3
20260504004541 44 328 0.0 0.0 0.00 0.00 0.00 55 1009.0
20260504003041 44 328 0.0 0.0 0.00 0.00 0.00 55 1008.9
20260504001543 46 328 0.0 0.0 0.00 0.00 0.00 52 1008.8
20260504000040 48 328 0.0 1.0 0.00 0.00 0.00 48 1008.5
20260503234539 49 328 0.0 5.0 0.00 0.00 0.00 45 1008.5
20260503233039 51 9 2.0 11.0 0.00 0.00 0.00 42 1008.2
20260503231537 51 317 2.0 9.0 0.00 0.00 0.00 42 1007.9
20260503230041 52 316 2.0 9.0 0.00 0.00 0.00 41 1007.7
20260503224536 52 272 2.0 9.0 0.00 0.00 0.00 42 1007.4
20260503223035 52 323 2.0 9.0 0.00 0.00 0.00 41 1007.2
20260503221535 53 40 1.0 8.0 0.00 0.00 0.00 42 1007.1
20260503220034 53 292 2.0 14.0 0.00 0.00 0.00 42 1006.8
20260503214539 53 154 2.0 8.0 0.00 0.00 0.00 43 1006.7
20260503213035 53 244 3.0 12.0 0.00 0.00 0.00 43 1006.4
20260503211532 53 360 2.0 8.0 0.00 0.00 0.00 41 1006.2
20260503210031 54 347 5.0 12.0 0.00 0.00 0.00 42 1005.8
20260503204531 54 360 2.0 12.0 0.00 0.00 0.00 44 1005.8
20260503203034 54 261 2.0 12.0 0.00 0.00 0.00 44 1005.6
20260503201529 55 320 3.0 9.0 0.00 0.00 0.00 42 1005.4
20260503200027 55 298 1.0 8.0 0.00 0.00 0.00 43 1005.4
20260503194523 53 346 2.0 9.0 0.00 0.00 0.00 46 1005.5
20260503193035 53 341 2.0 12.0 0.00 0.00 0.00 45 1005.3
20260503191547 53 326 3.0 14.0 0.00 0.00 0.00 45 1005.4
20260503190027 53 316 2.0 10.0 0.00 0.00 0.00 49 1005.5
20260503184520 54 345 1.0 6.0 0.00 0.00 0.00 48 1005.5